Monroe, NC

10:54 AM EST on December 13, 2017 (GMT -0500)
Monroe

Weather History for KEQY - June, 2014

Change the Weather History Date:

Wednesday, June 25, 2014

  Actual Average (KCLT) Record (KCLT)
Temperature  
Mean Temperature 78 °F -  
Max Temperature 90 °F 87 °F 102 °F (1914)
Min Temperature 70 °F 67 °F 53 °F (1889)
Cooling Degree Days 14    
Growing Degree Days 28 (Base 50)    
Moisture  
Dew Point 70 °F    
Average Humidity 84    
Maximum Humidity 97    
Minimum Humidity 55    
Precipitation  
Precipitation 0.08 in - - ()
Sea Level Pressure  
Sea Level Pressure 30.00 in    
Wind  
Wind Speed 5 mph (SW)    
Max Wind Speed 15 mph    
Max Gust Speed 24 mph    
Visibility 7 miles    
Events Rain , Thunderstorm    
Averages and records for this station are not official NWS values.
T = Trace of Precipitation, MM = Missing Value Source: NWS Daily Summary

Daily Weather History Graph

Daily Weather History Graph

Search for Another Location

Airport or City:

Trip Planner

Search our weather history database for the weather conditions in past years. The results will help you decide how hot, cold, wet, or windy it might be!

Date:

Astronomy

Jun. 25, 2014 Rise Set
Actual Time 6:09 AM EDT 8:40 PM EDT
Civil Twilight 5:40 AM EDT 9:10 PM EDT
Nautical Twilight 5:03 AM EDT 9:46 PM EDT
Astronomical Twilight 4:22 AM EDT 10:27 PM EDT
Moon 4:56 AM EDT (6/25) 7:14 PM EDT (6/25)
Length of Visible Light 15h 29m
Length of Day
14h 30m
Waning Crescent, 3% of the Moon is Illuminated
Jun 25
Waning Crescent
Jun 27
New
Jul 5
First Quarter
Jul 12
Full
Jul 18
Last Quarter

Hourly Weather History & Observations

Time (EDT) Temp. Heat Index Dew Point Humidity Pressure Visibility Wind Dir Wind Speed Gust Speed Precip Events Conditions
12:53 AM 72.0 °F - 69.1 °F 91% 30.03 in 8.0 mi Calm Calm - N/A   Clear
1:23 AM 71.1 °F - 69.1 °F 93% 30.03 in 1.8 mi Calm Calm - N/A   Partly Cloudy
1:45 AM 70.0 °F - 69.1 °F 97% 30.03 in 0.8 mi Calm Calm - N/A   Partly Cloudy
1:53 AM 71.1 °F - 69.1 °F 93% 30.03 in 3.0 mi Calm Calm - N/A   Partly Cloudy
1:56 AM 71.1 °F - 69.1 °F 93% 30.03 in 1.8 mi Calm Calm - N/A   Partly Cloudy
2:29 AM 70.0 °F - 68.0 °F 93% 30.03 in 3.0 mi SSW 3.5 mph - N/A   Clear
2:53 AM 70.0 °F - 69.1 °F 97% 30.03 in 6.0 mi Calm Calm - N/A   Clear
3:36 AM 71.1 °F - 69.1 °F 93% 30.01 in 6.0 mi South 3.5 mph - N/A   Mostly Cloudy
3:53 AM 71.1 °F - 69.1 °F 93% 30.01 in 5.0 mi Variable 4.6 mph - N/A   Partly Cloudy
4:07 AM 71.1 °F - 69.1 °F 93% 30.01 in 5.0 mi SSW 4.6 mph - N/A   Scattered Clouds
4:21 AM 71.1 °F - 69.1 °F 93% 30.01 in 5.0 mi SW 5.8 mph - N/A   Mostly Cloudy
4:53 AM 71.1 °F - 69.1 °F 93% 30.01 in 5.0 mi SSW 5.8 mph - N/A   Mostly Cloudy
5:37 AM 71.1 °F - 69.1 °F 93% 30.02 in 5.0 mi SSW 6.9 mph - N/A   Scattered Clouds
5:53 AM 71.1 °F - 69.1 °F 93% 30.01 in 6.0 mi SSW 6.9 mph - N/A   Clear
6:17 AM 71.1 °F - 69.1 °F 93% 30.03 in 4.0 mi SW 6.9 mph - N/A   Scattered Clouds
6:27 AM 71.1 °F - 69.1 °F 93% 30.03 in 4.0 mi SW 8.1 mph - N/A   Mostly Cloudy
6:53 AM 71.1 °F - 69.1 °F 93% 30.03 in 4.0 mi SSW 8.1 mph - N/A   Overcast
7:53 AM 72.0 °F - 70.0 °F 93% 30.03 in 5.0 mi SW 10.4 mph - N/A   Mostly Cloudy
8:53 AM 75.0 °F - 71.1 °F 87% 30.03 in 7.0 mi WSW 11.5 mph - N/A   Mostly Cloudy
9:37 AM 77.0 °F - 71.1 °F 82% 30.03 in 9.0 mi WSW 12.7 mph - N/A   Mostly Cloudy
9:53 AM 78.1 °F - 71.1 °F 79% 30.02 in 8.0 mi WSW 10.4 mph - N/A   Mostly Cloudy
10:13 AM 79.0 °F - 71.1 °F 77% 30.02 in 10.0 mi SW 12.7 mph - N/A   Scattered Clouds
10:53 AM 80.1 °F 83.2 °F 70.0 °F 71% 30.02 in 10.0 mi SW 15.0 mph - N/A   Scattered Clouds
11:53 AM 82.9 °F 87.0 °F 70.0 °F 65% 30.00 in 10.0 mi WSW 13.8 mph - N/A   Scattered Clouds
12:53 PM 84.9 °F 90.1 °F 71.1 °F 63% 29.99 in 10.0 mi WSW 10.4 mph - N/A   Mostly Cloudy
1:53 PM 84.0 °F 87.8 °F 69.1 °F 61% 29.98 in 10.0 mi SW 12.7 mph - N/A   Mostly Cloudy
2:53 PM 87.1 °F 91.3 °F 69.1 °F 55% 29.96 in 10.0 mi WSW 11.5 mph - N/A   Mostly Cloudy
4:53 PM 81.0 °F 84.1 °F 69.1 °F 67% 29.96 in 3.0 mi NW 15.0 mph 24.2 mph 0.07 in Rain , Thunderstorm Heavy Rain
5:11 PM 79.0 °F - 72.0 °F 79% 29.95 in 10.0 mi WSW 6.9 mph - 0.01 in Rain Light Rain
5:29 PM 78.1 °F - 73.0 °F 84% 29.95 in 10.0 mi SW 6.9 mph - 0.01 in Rain , Thunderstorm Light Thunderstorms and Rain
5:49 PM 78.8 °F - 73.4 °F 83% 29.94 in 10.0 mi Variable 3.5 mph - 0.01 in   Scattered Clouds
5:53 PM 80.1 °F 84.2 °F 73.0 °F 79% 29.94 in 10.0 mi West 3.5 mph - 0.01 in   Partly Cloudy
6:53 PM 82.9 °F 88.0 °F 72.0 °F 69% 29.93 in 10.0 mi West 5.8 mph - N/A   Clear
7:53 PM 80.1 °F 83.6 °F 71.1 °F 74% 29.94 in 10.0 mi West 4.6 mph - N/A   Clear
9:53 PM 75.9 °F - 72.0 °F 87% 29.97 in 10.0 mi SW 3.5 mph - N/A   Clear
11:53 PM 75.9 °F - 72.0 °F 87% 29.99 in 10.0 mi WSW 10.4 mph - N/A   Mostly Cloudy